South Bend, IN

3:41 AM EDT on September 30, 2016 (GMT -0400)
South Bend Regional

Weather History for KSBN - April, 2013

Change the Weather History Date:

Friday, April 26, 2013

  Actual Average Record
Temperature  
Mean Temperature 47 °F 53 °F  
Max Temperature 64 °F 64 °F 88 °F (1915)
Min Temperature 30 °F 42 °F 25 °F (1997)
Degree Days  
Heating Degree Days 18 13  
Month to date heating degree days 515 442  
Since 1 July heating degree days 5926 5986  
Cooling Degree Days 0 0  
Month to date cooling degree days 0 0  
Year to date cooling degree days 0 1  
Moisture  
Dew Point 33 °F    
Average Humidity 59    
Maximum Humidity 82    
Minimum Humidity 36    
Precipitation  
Precipitation 0.00 in 0.11 in 1.25 in (2011)
Month to date precipitation 5.16 2.77  
Year to date precipitation 13.91 9.43  
Snow  
Snow 0.00 in 0.00 in 0.10 in (1996)
Month to date snowfall T 1.4  
Since 1 July snowfall 59.9 66.6  
Snow Depth 0.00 in    
Sea Level Pressure  
Sea Level Pressure 30.37 in    
Wind  
Wind Speed 8 mph (South)    
Max Wind Speed 22 mph    
Max Gust Speed 28 mph    
Visibility 10 miles    
Events      
T = Trace of Precipitation, MM = Missing Value Source: NWS Daily Summary

Daily Weather History Graph

Daily Weather History Graph

Search for Another Location

Airport or City:

Trip Planner

Search our weather history database for the weather conditions in past years. The results will help you decide how hot, cold, wet, or windy it might be!

Date:

Astronomy

Apr. 26, 2013 Rise Set
Actual Time 6:48 AM EDT 8:38 PM EDT
Civil Twilight 6:18 AM EDT 9:08 PM EDT
Nautical Twilight 5:42 AM EDT 9:44 PM EDT
Astronomical Twilight 5:03 AM EDT 10:23 PM EDT
Moon 10:01 PM EDT (4/26) 7:14 AM EDT (4/26)
Length of Visible Light 14h 49m
Length of Day
13h 50m
Full, 99% of the Moon is Illuminated
Apr 26
Full
May 2
Last Quarter
May 9
New
May 18
First Quarter
May 25
Full

Hourly Weather History & Observations

Time (EDT) Temp. Windchill Dew Point Humidity Pressure Visibility Wind Dir Wind Speed Gust Speed Precip Events Conditions
12:54 AM 36.0 °F - 27.0 °F 70% 30.38 in 10.0 mi Calm Calm - N/A   Clear
1:54 AM 34.0 °F - 28.0 °F 79% 30.38 in 10.0 mi Calm Calm - N/A   Clear
2:54 AM 33.8 °F - 26.6 °F 75% 30.36 in 10.0 mi Calm Calm - N/A   Clear
3:54 AM 32.0 °F - 26.1 °F 79% 30.38 in 10.0 mi Calm Calm - N/A   Clear
4:54 AM 33.1 °F - 28.0 °F 82% 30.39 in 10.0 mi Calm Calm - N/A   Clear
5:54 AM 33.1 °F - 27.0 °F 78% 30.39 in 10.0 mi Calm Calm - N/A   Clear
6:54 AM 33.1 °F - 27.0 °F 78% 30.40 in 10.0 mi Calm Calm - N/A   Clear
7:54 AM 37.0 °F 34.5 °F 28.9 °F 73% 30.42 in 10.0 mi SSE 3.5 mph - N/A   Clear
8:54 AM 45.0 °F 39.7 °F 30.9 °F 58% 30.43 in 10.0 mi South 10.4 mph - N/A   Clear
9:54 AM 48.9 °F - 30.0 °F 48% 30.42 in 10.0 mi South 11.5 mph - N/A   Clear
10:54 AM 52.0 °F - 32.0 °F 47% 30.41 in 10.0 mi South 11.5 mph - N/A   Clear
11:54 AM 55.0 °F - 33.1 °F 43% 30.41 in 10.0 mi SSE 10.4 mph - N/A   Clear
12:54 PM 59.0 °F - 35.1 °F 41% 30.41 in 10.0 mi South 15.0 mph - N/A   Clear
1:54 PM 60.1 °F - 36.0 °F 41% 30.38 in 10.0 mi South 15.0 mph 20.7 mph N/A   Clear
2:54 PM 62.1 °F - 36.0 °F 38% 30.36 in 10.0 mi SSW 13.8 mph - N/A   Clear
3:54 PM 63.0 °F - 37.0 °F 38% 30.34 in 10.0 mi South 10.4 mph 19.6 mph N/A   Clear
4:54 PM 63.0 °F - 37.0 °F 38% 30.33 in 10.0 mi South 16.1 mph 20.7 mph N/A   Clear
5:54 PM 63.0 °F - 37.9 °F 40% 30.31 in 10.0 mi SSW 11.5 mph - N/A   Clear
6:54 PM 63.0 °F - 37.9 °F 40% 30.31 in 10.0 mi South 13.8 mph 20.7 mph N/A   Clear
7:54 PM 62.1 °F - 37.9 °F 41% 30.31 in 10.0 mi South 13.8 mph - N/A   Clear
8:54 PM 57.9 °F - 39.0 °F 49% 30.32 in 10.0 mi South 8.1 mph - N/A   Clear
9:54 PM 55.9 °F - 39.0 °F 53% 30.34 in 10.0 mi SSE 6.9 mph - N/A   Clear
10:54 PM 53.1 °F - 37.9 °F 57% 30.33 in 10.0 mi South 6.9 mph - N/A   Clear
11:54 PM 51.1 °F - 37.9 °F 61% 30.34 in 10.0 mi South 5.8 mph - N/A   Clear